Home   Weather   Waterbury   Past weeks

Flag for USA Past Weather in Waterbury, Connecticut, USA — Yesterday and Last 2 Weeks

Now
36 °F

Overcast.


Feels Like: 27 °F
Forecast: 36 / 39 °F
Wind: 14 mph from East

Location: Oxford

Current Time: Jan 23, 2017 at 2:15:43 pm

Latest Report: Jan 23, 2017 at 12:50 pm


Visibility: 10 mi

Pressure: 29.82 "Hg

Humidity: 70%

Dew Point: 27 °F

Location of WaterburyLocation

Past Weather in Waterbury — Graph

°F

Waterbury Temperature Yesterday

Maximum temperature yesterday: 52 °F (at 11:50 am)
Minimum temperature yesterday: 39 °F (at 1:35 am)
Average temperature yesterday: 43 °F

High & Low Weather Summary for the Past Weeks

 TemperatureHumidityPressure
High57 °F (Jan 12, 3:50 pm)93% (Jan 12, 2:55 am)30.68 "Hg (Jan 12, 2:55 am)
Low0 °F (Jan 9, 4:55 am)38% (Jan 15, 3:45 pm)29.73 "Hg (Jan 22, 3:55 am)
Average34 °F71%30.18 "Hg
* Reported Jan 8 12:50 pm — Jan 23 12:50 pm, Waterbury, Weather by CustomWeather, © 2017

Note: Actual official high and low records may vary slightly from our data, if they occured in-between our weather recording intervals... More about our weather records

Advertising

Waterbury Weather History for the Previous 24 Hours

Scroll right to see more
 ConditionsComfort  
Time TempWeatherWind HumidityBarometerVisibility
12:50 pm
Mon, Jan 23
36 °FOvercast.14 mph70%29.82 "Hg10 mi
11:55 am36 °FMostly cloudy.17 mph75%29.85 "Hg7 mi
10:50 am36 °FMostly cloudy.17 mph75%29.88 "Hg8 mi
9:50 am36 °FLight snow. Fog.17 mph75%29.89 "Hg4 mi
8:50 am36 °FLight snow. Fog.17 mph75%29.91 "Hg4 mi
8:20 am36 °FLight snow. Fog.17 mph75%29.91 "Hg6 mi
7:50 am36 °FMostly cloudy.17 mph75%29.88 "Hg10 mi
7:00 am36 °FOvercast.17 mph75%29.88 "Hg10 mi
6:50 am36 °FOvercast.17 mph75%29.89 "Hg10 mi
5:55 am37 °FOvercast.13 mph75%29.88 "Hg10 mi
5:15 am37 °FMostly cloudy.15 mph75%29.88 "Hg10 mi
4:35 am37 °FOvercast.8 mph75%29.88 "Hg10 mi
3:55 am37 °FOvercast.13 mph87%29.84 "Hg10 mi
3:15 am37 °FLow clouds.15 mph87%29.85 "Hg10 mi
2:55 am39 °FLow clouds.9 mph81%29.87 "Hg10 mi
2:15 am39 °FLow clouds.10 mph81%29.89 "Hg7 mi
1:55 am39 °FLow clouds.9 mph81%29.87 "Hg9 mi
1:15 am39 °FLow clouds.10 mph87%29.87 "Hg8 mi
12:35 am39 °FLow clouds.9 mph87%29.86 "Hg8 mi
11:55 pm
Sun, Jan 22
39 °FLow clouds.10 mph87%29.86 "Hg5 mi
11:15 pm39 °FLow clouds.9 mph87%29.86 "Hg5 mi
10:55 pm39 °FLow clouds.10 mph87%29.86 "Hg4 mi
10:15 pm39 °FLow clouds.12 mph87%29.85 "Hg7 mi
9:55 pm41 °FOvercast.13 mph76%29.85 "Hg10 mi
9:35 pm41 °FOvercast.14 mph81%29.84 "Hg10 mi
8:50 pm43 °FLow clouds.14 mph76%29.83 "Hg10 mi
8:15 pm43 °FMostly cloudy.13 mph81%29.82 "Hg10 mi
7:50 pm45 °FOvercast.9 mph76%29.81 "Hg10 mi
6:50 pm46 °FMostly cloudy.9 mph71%29.79 "Hg10 mi
5:50 pm46 °FMostly cloudy.12 mph71%29.79 "Hg10 mi
4:50 pm48 °FMostly cloudy.7 mph71%29.76 "Hg10 mi
3:45 pm50 °FOvercast.9 mph67%29.73 "Hg10 mi
2:50 pm52 °FOvercast.12 mph67%29.73 "Hg10 mi
Weather by CustomWeather, © 2017

See weather overviewHow to use our weather pages